sat.trackr.live / text

‹ back to catalog

STARLINK-30368

NORAD 57752 · 2023-131W

PAYLOAD ACTIVE UNKNOWN

§ Identity

Operator
Country
US
Launch date
2023-09-01
Launch site
AFETR
Launch vehicle
Mass (kg)
RCS (m²)

Purposes: comms

External: N2YO · Heavens-Above · Gunter

§ Orbital elements

Epoch: 2026-09-19T10:20:11.261760Z

Period
94.26 min
Inclination
43.0037°
Eccentricity
0.0001463
Mean motion
15.27641472 rev/d
Perigee alt
481.9 km
Apogee alt
483.9 km
Semi-major
6,861.0 km
B*
-4.5463e-4
RAAN
158.5340°
Arg perigee
281.0847°
Mean anomaly
78.9840°
Rev number
16,954

§ Raw data

STARLINK-303681 57752U 23131W   26262.43068590 -.00012775  00000+0 -45463-3 0  99972 57752  43.0037 158.5340 0001463 281.0847  78.9840 15.27641472169545

JSON: /api/v1/satellites/57752 · /tle

For live sub-satellite position, see the globe view (requires WebGL).

§ Visibility from observer

Set your observer location to see the next 7 days of passes ≥ 10°. The values pass through the URL so the page stays shareable.

No JS? Fill the form by hand. The geolocation button needs JavaScript.